Regional Weather Roundup
Issued by NWS

Home | Current Version | Previous Version | Graphics & Text | Print | Product List | Glossary On
Versions: 1 2 3 4 5 6 7 8 9 10 11 12 13 14 15 16 17 18 19 20 21 22 23 24 25 26 27 28 29 30 31 32 33 34 35 36 37 38 39 40 41 42 43 44 45 46 47 48 49 50
000
ASUS44 KMEG 241810
RWRTN
TENNESSEE HOURLY STATE WEATHER ROUNDUP
NATIONAL WEATHER SERVICE MEMPHIS TN
1200 PM CST WED DEC 24 2014

TNZ002-004-019-021-049-052-054-088>092-241900-
WEST TENNESSEE

CITY           SKY/WX    TMP DP  RH WIND       PRES   REMARKS
MEMPHIS INTL   PTSUNNY   47  39  74 NW9       29.78F
NWS MEMPHIS      N/A     43 N/A N/A MISG        N/A
JACKSON        CLOUDY    45  39  81 W13       29.74S
DYERSBURG      CLOUDY    43  30  61 W7        29.76S
UNION CITY     CLOUDY    39  39 100 W13       29.71F WCI  32
PARIS          CLOUDY    43  37  81 W7        29.69F
HUNTINGDON     CLOUDY    43  40  89 W7        29.71F
LEXINGTON      CLOUDY    45  39  81 W9        29.70S
SAVANNAH       CLOUDY    46  46 100 NW12      29.73S
$$

TNZ008-025-027-028-033-062-065-066-241900-
NORTH MIDDLE TENNESSEE

CITY           SKY/WX    TMP DP  RH WIND       PRES   REMARKS
NASHVILLE      CLOUDY    46  43  89 W9G23     29.64S
CLARKSVILLE    CLOUDY    45  42  89 W14       29.66F
SMYRNA         LGT RAIN  47  44  89 NW13      29.65S
COOKEVILLE     CLOUDY    61  57  88 W18       29.54R
CROSSVILLE     CLOUDY    58  54  86 S15G24    29.56F
$$

TNZ061-075-076-078-094-096-097-241900-
SOUTH MIDDLE TENNESSEE

CITY           SKY/WX    TMP DP  RH WIND       PRES   REMARKS
FAYETTEVILLE   CLOUDY    45  43  93 MISG      29.68R
TULLAHOMA      CLOUDY    45  43  93 W13       29.66R
WINCHESTER     CLOUDY    46  46 100 W10       29.67R
MCMINNVILLE    CLOUDY    48  46  93 W17       29.62R
COLUMBIA       CLOUDY   N/A N/A N/A W6        29.67R
SHELBYVILLE    CLOUDY    46  46 100 W10       29.67R
$$

TNZ017-018-042-046-047-241900-
NORTHEAST TENNESSEE

CITY           SKY/WX    TMP DP  RH WIND       PRES   REMARKS
TRI CITIES     CLOUDY    58  56  93 CALM      29.58F
ELIZABETHTON   CLEAR     63  54  72 E7        29.58F
$$

TNZ012-013-036-069-073-074-241900-
CENTRAL EAST TENNESSEE

CITY           SKY/WX    TMP DP  RH WIND       PRES   REMARKS
KNOXVILLE      CLOUDY    57  55  93 W7        29.57F
OAK RIDGE      CLOUDY    58  55  90 CALM      29.58F
GATLINBURG     CLEAR     57  55  94 NW5       29.57S
MORRISTOWN     CLEAR     61  57  88 S3        29.58S
$$

TNZ083-085-099-241900-
SOUTHEAST TENNESSEE

CITY           SKY/WX    TMP DP  RH WIND       PRES   REMARKS
CHATTANOOGA    CLOUDY    57  55  93 S10       29.60F
$$

SKY/WX REPORTED AS FAIR MEANS FEW OR NO CLOUDS BELOW
12 THOUSAND FEET.



USA.gov is the U.S. government's official web portal to all federal, state and local government web resources and services.